Theta_e
308 309 310 311 311 310 310 309 309 309 309 309 309 308 308 308 307 307 307 307 308 308 308 309 308 309 309 309 309 308 309 308 310 312 312 318 322 321 320 322 321 322 317 314 327 336 334 337 344 346 344 344 346 347 348 349 349 354 357 358 359 358 354 356 356 353 354 355 357 358 358 357 353 355 354 354 355 355 355 355 354 354 352 352 352 351 351 350
307 307 309 310 311 311 311 310 310 309 309 309 309 309 308 308 308 308 307 308 308 308 308 308 309 309 309 309 309 310 309 310 319 322 323 324 322 317 315 318 320 322 318 314 330 337 334 339 344 345 344 343 345 346 347 349 349 350 356 357 357 355 352 356 356 354 355 355 356 356 357 356 355 354 354 355 355 355 355 354 355 354 352 352 352 352 352 350
306 306 307 308 309 311 311 311 311 310 309 309 309 309 309 308 308 308 308 308 307 308 308 309 309 309 309 310 309 311 309 317 329 331 332 330 324 316 312 315 318 322 317 315 332 337 335 341 344 344 344 343 344 346 345 347 350 349 355 356 355 355 354 356 356 355 356 355 356 355 355 355 355 354 355 355 354 355 355 354 355 354 353 351 351 352 351 350
306 306 306 307 308 310 311 311 311 310 310 309 310 309 309 309 309 308 308 308 308 308 308 308 309 309 310 309 309 310 312 322 333 334 334 330 324 318 314 315 317 322 318 318 333 337 336 340 342 343 343 342 342 345 344 346 348 348 352 354 354 356 357 358 354 354 355 355 357 357 356 356 354 353 355 355 354 354 356 355 355 355 353 352 352 352 351 350
305 305 306 307 308 308 309 311 311 311 311 310 310 310 309 309 309 309 308 308 308 308 308 308 309 309 309 310 310 311 318 328 330 331 330 324 321 321 320 318 318 321 317 322 335 337 336 339 340 342 342 341 341 342 343 345 347 347 349 350 353 356 359 359 354 354 354 354 358 358 356 356 355 354 355 354 356 356 356 355 356 354 352 352 352 351 351 350
305 305 306 307 309 309 309 310 311 312 311 311 310 310 310 310 310 309 309 309 308 308 308 308 308 309 310 311 311 312 323 330 325 326 325 320 319 320 322 321 319 320 318 327 336 337 337 338 339 341 341 340 341 340 342 344 345 345 346 350 355 355 358 359 356 355 354 355 359 358 355 354 355 355 355 356 355 356 355 354 356 354 353 352 352 351 350 350
305 306 306 307 309 310 311 310 310 312 311 311 311 311 311 310 310 309 309 309 308 308 308 308 308 311 312 313 313 319 327 329 323 325 322 317 317 319 323 321 321 319 319 328 335 338 338 336 339 340 340 339 339 340 341 343 344 344 345 351 355 353 356 357 356 356 354 354 356 354 355 356 356 355 354 356 354 354 354 355 354 353 353 352 351 351 349 350
305 306 306 307 309 311 312 311 311 311 311 312 311 311 311 310 310 309 309 309 308 308 308 308 309 313 314 312 317 325 331 327 323 324 322 318 315 317 322 322 322 319 321 329 334 340 339 335 338 338 340 340 338 340 340 342 342 341 343 347 354 354 355 355 355 355 353 355 353 353 357 356 356 355 354 356 354 353 354 354 354 354 352 352 351 350 350 349
305 306 305 307 310 312 313 313 312 311 312 312 311 311 311 310 310 309 310 309 308 308 308 310 312 315 313 313 319 327 327 324 322 322 323 324 318 317 322 322 321 318 323 330 334 340 339 335 336 336 339 339 338 338 337 339 339 341 341 341 348 353 354 353 354 353 352 354 352 355 357 356 354 354 356 355 355 354 354 354 354 353 352 352 351 350 349 348
305 305 305 307 310 312 313 313 313 312 312 312 311 311 310 310 310 310 309 308 308 308 309 312 314 315 314 317 325 328 324 321 321 320 323 327 322 318 323 323 321 319 323 329 332 338 339 334 335 335 336 336 335 335 334 335 336 341 341 341 341 345 352 353 352 353 352 353 354 356 355 355 353 354 357 356 355 354 354 354 353 353 352 352 352 350 349 348
305 305 306 307 309 312 313 313 313 313 312 312 311 310 310 310 310 310 309 308 308 308 310 314 314 314 315 321 328 327 321 320 319 319 322 326 323 320 324 325 323 322 323 328 332 336 338 334 334 334 335 334 332 333 333 333 334 337 340 341 341 340 345 349 349 352 353 352 353 354 353 354 352 353 357 356 355 354 355 354 353 353 353 352 352 351 350 348
305 305 305 306 310 312 313 313 313 313 312 311 311 310 310 310 310 309 308 309 308 309 312 315 314 315 320 325 329 324 319 320 319 318 320 325 325 323 325 327 324 323 326 330 333 336 336 334 334 334 334 333 330 330 330 331 333 335 337 338 339 340 339 342 345 348 351 351 352 351 351 353 353 352 355 355 355 355 354 353 352 353 352 353 353 352 351 349
305 305 305 306 309 312 313 313 313 313 311 311 310 310 310 309 309 308 308 308 308 310 313 315 314 318 326 329 326 320 317 319 319 317 318 322 327 326 326 330 327 325 329 334 337 337 335 334 334 333 333 332 331 329 328 331 332 333 335 334 334 335 336 339 343 347 349 348 351 349 346 350 353 351 353 354 355 354 352 353 353 352 352 352 353 352 351 351
305 305 305 305 308 312 313 313 313 312 311 310 310 309 309 309 308 308 309 309 309 313 314 315 315 318 328 330 321 317 317 319 320 318 318 319 324 326 326 331 332 329 332 336 339 337 334 333 332 332 332 332 332 331 329 330 330 331 331 331 333 330 332 340 339 343 347 348 351 348 342 348 352 350 352 353 353 353 352 352 352 352 353 351 353 353 351 352
304 305 305 305 307 312 313 313 313 312 311 311 310 310 310 309 308 308 308 308 310 315 314 317 319 320 331 332 320 319 318 321 322 319 319 316 322 327 326 328 331 333 334 335 338 337 334 332 331 330 331 331 331 330 331 331 329 330 327 325 331 329 331 338 338 341 346 348 350 347 343 348 352 350 351 353 353 354 353 353 352 353 354 352 353 353 352 352
305 305 305 305 307 311 313 312 312 312 311 311 310 311 311 309 309 309 308 309 312 314 314 323 328 326 331 329 319 320 319 320 320 317 318 317 320 326 326 326 329 331 334 336 337 335 334 333 331 330 331 331 330 330 331 328 326 329 326 323 327 329 329 333 336 340 345 347 348 346 345 349 351 349 350 352 353 354 354 354 354 352 353 353 353 352 353 352
307 305 304 305 306 311 313 312 312 312 311 312 311 313 314 310 309 310 311 312 314 316 316 322 328 327 328 323 318 320 318 317 317 316 317 318 318 322 326 327 327 330 333 335 334 334 333 332 331 330 330 330 330 330 328 322 321 325 326 324 326 329 329 328 334 340 344 347 348 347 348 348 348 348 351 352 352 353 355 353 353 352 352 353 353 352 353 352
309 307 305 304 306 310 313 312 311 311 312 313 312 315 316 313 312 312 313 315 318 325 324 322 325 326 325 321 319 318 317 316 317 317 317 318 318 319 326 328 328 330 333 333 333 332 331 331 330 330 330 329 330 331 325 321 320 322 323 322 324 328 329 328 333 340 344 347 348 347 347 348 346 347 351 352 352 353 354 354 353 353 352 352 353 352 352 352
310 309 306 304 306 310 313 312 311 311 312 314 314 316 318 318 319 317 316 321 326 330 328 324 325 323 319 318 318 316 317 316 317 319 317 318 317 317 324 328 328 331 332 331 330 330 330 330 330 328 329 328 330 331 327 325 325 324 325 324 323 325 328 332 334 340 344 348 351 349 346 348 346 348 351 352 353 352 353 354 355 354 353 353 353 352 353 352
310 309 306 304 305 309 313 312 311 311 313 314 315 317 318 320 322 321 318 322 327 324 319 319 320 317 316 317 317 316 317 317 318 320 319 318 318 318 323 328 330 332 332 329 327 329 330 330 329 328 329 329 329 330 329 329 327 326 326 325 325 325 327 333 335 338 342 345 349 350 347 348 348 347 350 351 352 352 352 354 355 356 355 353 354 353 353 353
310 309 306 304 305 309 313 313 311 312 314 316 317 317 318 315 317 318 316 318 320 317 314 316 316 315 316 316 316 316 317 318 318 319 319 319 319 320 325 328 329 330 330 329 328 329 329 327 329 329 328 328 328 328 329 329 328 327 324 323 324 325 327 333 334 337 340 341 343 348 347 348 348 347 348 350 351 351 350 352 354 356 354 352 354 353 353 352
309 308 306 304 305 309 313 312 312 313 314 316 318 318 316 314 314 315 314 316 317 316 315 315 315 316 316 315 316 316 316 318 319 320 320 319 321 324 327 326 327 329 330 329 328 328 327 327 327 329 328 326 327 327 328 327 327 327 326 322 321 324 328 330 332 334 339 338 340 348 349 347 348 347 349 349 349 351 350 350 354 357 355 352 351 352 353 352
308 307 305 305 306 309 313 313 313 315 315 317 318 316 314 315 314 314 314 316 318 318 317 316 316 316 316 316 316 315 316 318 319 320 319 320 323 325 327 326 325 327 327 326 327 325 325 326 327 328 326 327 325 325 326 327 327 325 325 321 319 326 327 325 329 333 336 338 338 343 347 348 349 346 348 348 348 350 348 351 355 355 354 352 350 351 352 353
307 305 305 305 306 310 314 315 316 316 315 317 317 315 315 315 314 315 315 317 318 318 317 316 316 317 316 315 315 314 316 317 318 320 318 319 323 323 326 327 326 326 326 326 327 325 326 327 328 327 326 327 325 326 326 325 325 324 325 323 321 326 327 326 330 333 334 336 339 338 335 341 348 347 347 347 346 348 347 353 356 354 352 351 351 350 351 353
306 305 305 305 307 310 314 316 317 316 316 317 316 315 315 315 315 315 315 318 319 318 317 316 316 316 315 314 315 314 316 318 317 318 318 318 320 321 324 326 327 327 326 326 326 326 327 328 329 327 327 327 326 325 326 324 323 323 325 324 324 326 328 329 331 330 327 327 336 338 326 329 345 349 347 345 346 348 349 354 358 355 352 350 351 351 350 353
305 305 304 305 308 310 314 317 318 317 317 318 316 315 314 315 315 314 316 318 317 317 317 316 315 315 315 314 315 316 316 318 317 317 318 317 318 319 320 323 326 326 326 327 326 325 326 327 328 328 327 327 326 326 326 326 322 319 324 326 325 326 326 326 328 326 322 323 333 338 328 325 334 342 348 348 347 346 349 353 355 356 353 351 351 351 350 353
306 305 305 306 308 311 313 316 316 317 318 316 315 315 314 315 314 314 318 317 314 317 317 316 315 314 314 315 314 315 315 316 318 318 318 318 318 318 318 320 322 323 324 325 324 324 326 326 326 326 328 327 326 324 326 328 323 320 326 327 325 325 324 325 326 323 322 325 331 335 333 326 325 334 344 347 344 345 349 352 353 356 356 353 351 350 350 352
309 308 307 307 309 312 312 312 313 316 318 316 315 315 315 316 314 316 320 315 313 318 317 315 316 314 314 315 315 315 315 316 317 318 319 319 318 319 318 319 319 320 323 323 321 324 327 326 325 326 325 325 325 326 327 328 325 324 327 328 326 325 324 325 324 323 324 324 324 327 331 327 324 331 340 343 343 344 348 351 352 354 356 354 353 351 350 351
312 311 310 308 310 314 314 312 314 317 317 315 315 315 315 315 315 317 318 315 316 317 316 315 315 314 315 315 316 316 316 316 316 317 319 319 318 318 318 319 319 320 321 321 321 324 326 326 326 325 325 325 325 327 327 327 327 326 327 327 327 325 325 325 323 321 321 320 320 324 327 324 323 329 334 338 341 342 345 349 352 353 354 354 353 352 351 352
313 312 311 309 311 315 316 315 317 318 317 316 315 314 315 315 316 318 316 316 317 316 315 316 315 315 316 315 316 316 316 316 317 317 317 317 318 318 319 319 319 319 319 320 321 323 325 326 327 326 325 326 325 326 326 326 327 327 327 327 325 324 325 324 324 321 318 317 320 324 327 326 323 325 331 335 339 344 344 346 350 352 353 353 353 350 350 351
314 313 312 310 311 314 314 316 318 317 316 316 314 315 316 317 317 318 317 316 316 316 316 316 315 315 316 316 316 316 316 316 317 317 316 317 318 319 319 317 318 318 317 318 319 320 322 322 325 327 326 327 326 325 325 327 326 326 327 325 321 321 322 320 320 320 316 315 318 323 327 326 321 324 333 337 338 342 345 345 350 352 352 354 353 351 350 351
314 313 312 310 312 312 313 316 316 316 316 315 315 316 317 318 318 316 316 316 314 315 316 315 315 315 315 314 315 315 316 315 316 316 316 316 318 319 319 318 318 317 316 316 316 317 319 321 323 326 327 326 324 324 324 325 326 326 326 322 317 315 317 317 317 317 316 315 318 321 323 322 321 327 335 338 336 339 346 347 349 351 354 354 353 352 351 353
314 312 312 312 313 313 313 315 316 315 315 315 315 316 318 320 319 317 316 315 314 315 316 315 315 315 314 314 315 316 315 315 315 316 315 317 317 318 318 319 319 318 316 317 317 316 316 319 322 323 325 327 325 323 321 322 324 324 322 318 316 315 315 317 317 317 317 316 317 321 320 317 319 327 333 335 335 338 343 348 349 349 352 352 352 351 352 353
313 313 312 314 315 316 315 316 317 315 315 315 316 317 319 319 319 317 317 316 314 315 315 315 315 314 314 314 314 315 315 315 316 315 316 315 315 316 317 319 319 318 317 316 315 315 315 316 319 320 323 325 326 323 323 324 324 324 324 321 318 316 316 317 317 317 317 316 317 319 318 315 315 323 331 333 336 338 338 343 347 346 348 350 350 352 351 350
313 315 316 316 318 317 316 317 317 314 314 315 316 318 319 318 317 316 315 315 315 315 315 315 314 314 314 314 315 315 314 314 316 315 315 314 315 316 318 318 318 318 318 315 316 317 315 316 320 321 323 324 325 325 325 325 322 323 325 321 318 319 319 317 317 318 317 316 316 316 317 319 321 327 333 332 334 337 337 340 347 347 349 350 351 353 350 348
313 318 319 319 319 318 316 315 315 314 314 316 317 319 319 317 316 316 315 315 314 314 314 313 314 313 313 314 315 315 314 314 315 314 314 315 315 317 319 318 317 317 317 316 316 317 316 317 321 322 323 324 325 326 326 324 322 324 323 319 321 325 323 318 316 319 319 316 317 316 316 320 322 326 330 333 334 336 338 337 345 350 352 351 353 352 349 350
313 318 321 320 318 316 315 315 314 314 315 317 318 320 319 317 316 315 315 315 314 314 313 312 313 313 313 313 315 315 314 314 315 314 313 314 315 316 318 318 317 317 317 316 316 317 316 316 320 322 322 323 325 326 326 325 324 323 320 321 325 326 324 321 318 318 318 317 318 317 316 318 318 320 327 334 334 335 336 336 343 352 352 351 353 352 350 350
315 318 320 319 317 316 315 315 314 315 316 317 319 320 318 316 315 315 314 315 314 314 313 312 313 314 313 313 314 315 315 313 314 314 314 314 315 316 318 317 318 317 316 316 316 316 316 314 317 320 321 323 325 325 324 326 327 324 323 326 325 321 320 321 319 318 318 318 318 318 318 318 317 319 326 330 334 335 337 337 339 349 352 350 351 352 352 351
317 321 321 318 317 316 315 314 315 316 317 318 319 319 317 315 315 315 314 314 314 314 313 314 314 314 314 314 313 315 315 313 313 314 313 314 315 316 316 315 317 317 316 316 314 315 316 315 316 319 321 322 325 323 321 322 325 325 324 326 325 322 321 320 320 319 318 318 318 319 319 318 321 325 327 330 333 335 338 338 337 345 350 350 350 352 352 352
320 323 321 317 317 316 315 315 316 318 319 319 319 317 316 315 315 315 314 313 314 313 313 314 314 314 314 314 313 314 315 314 313 314 313 313 314 314 315 314 315 315 315 315 314 314 315 315 315 318 320 321 322 322 322 321 323 324 322 322 322 324 323 322 322 320 319 319 319 319 319 319 326 332 331 331 334 333 336 339 339 344 349 348 348 350 350 351
321 323 319 317 317 316 316 317 318 319 318 318 317 316 316 315 315 315 314 313 313 313 313 313 313 313 313 313 314 314 314 314 314 313 313 314 314 313 313 314 313 313 313 313 314 315 316 315 315 317 317 318 320 323 325 324 325 325 322 321 321 323 322 321 321 320 320 318 318 320 319 320 327 334 332 332 334 332 334 337 339 344 347 347 348 349 350 350
321 322 318 316 317 317 317 318 318 319 318 317 316 315 315 315 315 315 315 314 314 314 313 313 313 313 313 313 313 314 314 313 313 313 313 313 314 313 313 313 313 313 313 313 313 316 318 317 317 317 317 318 321 323 324 324 325 325 324 324 324 324 322 319 319 320 320 319 319 320 318 323 332 336 334 334 333 333 333 337 337 339 343 344 346 348 350 351
323 319 317 316 317 317 318 319 318 318 317 317 316 315 314 315 315 314 315 314 314 313 313 313 313 313 313 313 313 313 313 312 312 313 313 313 313 313 313 314 313 313 312 313 314 316 317 317 317 317 317 318 320 321 322 322 323 324 325 325 325 324 324 323 323 323 321 318 319 319 318 323 331 338 335 333 334 334 334 335 336 337 338 338 341 345 348 349
322 319 318 317 316 317 318 318 318 317 316 316 316 315 314 315 314 314 314 314 314 314 313 313 313 313 313 313 312 312 312 312 312 312 313 313 313 314 313 313 313 313 312 313 314 314 314 317 318 317 318 318 317 318 320 321 322 322 323 325 325 325 325 325 326 326 323 320 321 320 317 321 331 338 335 333 333 333 333 334 334 334 335 337 335 339 347 349
322 321 320 317 316 317 317 317 317 317 315 316 315 315 315 314 313 313 313 313 314 314 312 313 314 313 313 312 312 312 312 312 312 313 312 312 312 313 313 312 313 312 313 314 314 312 312 314 317 318 319 317 315 316 318 320 322 323 324 325 325 326 325 324 323 323 322 323 326 323 320 323 331 336 333 333 333 331 333 334 333 334 334 335 336 336 343 349
322 319 318 318 317 317 316 316 317 317 316 316 316 315 314 314 313 312 313 313 313 313 313 313 313 313 312 313 313 313 313 312 312 312 313 312 313 313 313 313 312 313 314 314 313 311 311 311 314 317 319 318 317 319 319 320 321 321 323 324 323 323 324 322 321 321 323 324 324 326 328 327 332 337 334 332 332 331 333 333 333 335 334 336 341 343 345 348
321 318 317 318 318 317 316 316 316 317 316 316 316 315 314 313 313 314 313 313 313 312 313 313 312 312 313 313 313 313 313 313 313 312 313 312 313 313 313 313 313 313 314 313 312 312 310 310 312 314 316 317 318 318 318 318 319 320 322 322 322 323 322 321 321 322 325 323 321 329 337 330 332 341 338 334 336 335 336 335 336 339 338 335 339 342 343 346
318 317 317 317 316 316 316 315 316 316 315 315 315 314 314 313 313 313 313 313 314 313 313 313 313 312 312 313 313 313 314 314 313 313 313 313 313 313 313 313 313 313 313 313 312 312 311 310 311 312 313 314 315 315 316 316 318 319 320 320 322 322 321 321 322 322 325 325 324 332 337 333 335 341 340 338 340 339 339 339 340 342 344 342 340 341 340 342
318 317 316 315 316 315 315 314 316 315 314 315 315 314 314 314 313 313 313 313 313 313 313 313 313 312 313 312 313 314 314 313 313 314 314 313 313 312 312 313 313 313 313 312 313 312 311 311 312 311 312 312 313 314 314 315 316 317 317 319 321 321 320 321 322 322 325 327 329 331 333 333 338 340 339 338 339 340 340 341 342 344 344 344 344 344 342 343
317 318 318 317 316 316 316 315 316 316 314 315 316 314 313 314 313 313 313 312 313 313 313 313 312 312 312 312 313 314 314 314 313 314 314 314 313 313 312 312 312 313 313 312 313 313 311 312 312 312 312 312 313 313 313 314 315 315 316 319 320 320 320 321 322 323 325 327 328 330 330 332 338 339 338 339 340 341 342 342 343 343 341 341 343 345 344 345
315 315 317 318 316 316 317 316 316 316 315 314 315 314 313 314 313 313 313 313 313 313 313 312 312 312 312 312 313 313 314 314 314 313 314 313 313 313 313 312 312 312 312 312 313 313 312 312 312 312 312 312 312 313 313 314 314 314 315 317 318 318 320 321 322 323 324 325 327 328 326 331 339 340 338 338 339 340 342 342 341 341 342 344 345 348 347 347
315 315 316 317 316 315 316 316 315 316 316 314 314 314 313 314 314 313 314 314 313 313 312 313 312 312 312 312 313 314 314 314 312 312 312 312 312 312 312 312 312 312 312 312 313 313 313 312 312 312 312 313 312 313 313 313 313 313 315 316 317 318 319 321 322 323 324 324 325 326 326 332 340 340 338 339 339 340 341 340 340 342 345 347 347 349 350 349
Wind_Speed
20 20 20 20 20 19 19 18 18 18 18 17 17 17 16 16 15 15 16 15 15 15 15 16 17 15 12 12 13 12 10 8 5 6 6 5 8 12 11 10 14 14 12 12 13 13 16 17 18 17 15 13 13 13 12 13 11 7 2 2 2 2 2 2 4 6 2 5 6 5 5 7 12 13 15 18 15 16 16 14 13 12 17 23 27 33 34 34
20 20 20 20 20 20 19 18 18 18 18 18 17 17 17 17 16 15 15 15 15 15 15 15 15 14 11 11 14 14 11 6 5 7 7 6 9 11 12 11 12 15 15 17 17 17 19 18 18 18 16 13 13 13 12 13 12 8 2 3 3 2 3 3 7 12 10 4 6 6 5 4 10 15 15 15 15 16 13 12 13 15 21 26 31 35 33 34
21 20 20 20 20 20 19 19 18 18 18 18 17 17 17 17 16 16 15 15 15 15 14 14 14 13 11 12 14 16 12 6 7 8 6 6 9 10 11 11 13 15 18 19 17 17 18 16 16 17 16 12 13 13 12 11 11 9 6 4 3 1 2 4 6 12 17 12 7 8 9 6 10 17 15 12 15 14 12 11 13 18 26 31 34 35 34 34
21 21 21 21 21 20 20 19 19 18 18 18 18 18 18 18 17 17 16 15 15 15 14 13 13 12 11 12 14 15 12 7 4 2 4 7 7 9 10 10 13 16 18 18 15 16 16 14 14 16 15 11 13 14 12 10 9 7 7 6 3 5 1 1 5 9 16 15 5 4 4 5 11 15 15 15 14 9 10 13 15 22 31 34 35 35 34 33
21 21 21 21 21 21 20 20 19 18 18 17 18 18 18 18 17 17 16 15 14 14 14 13 12 12 12 13 14 13 9 4 3 1 7 8 5 6 8 9 12 16 17 18 15 15 16 15 14 16 13 10 11 12 11 13 11 7 9 10 5 6 1 4 10 8 12 14 4 6 4 6 10 10 12 13 11 7 12 16 16 24 33 35 36 35 34 34
22 22 22 22 21 21 20 20 19 18 18 17 17 18 18 18 17 16 16 15 14 14 13 13 12 12 12 12 13 9 4 2 4 4 10 6 5 6 6 8 12 16 18 19 15 16 17 16 15 15 13 10 11 10 10 14 13 8 8 6 5 6 3 6 12 10 13 13 6 8 13 11 6 10 9 7 10 12 16 19 18 25 32 33 35 35 34 34
22 22 22 22 22 21 21 20 19 18 17 17 17 18 18 18 17 16 16 15 14 13 12 12 12 11 11 11 11 7 7 5 4 7 12 9 8 6 5 8 13 18 21 20 17 16 18 17 16 15 12 9 10 12 11 13 15 10 6 7 10 11 10 10 12 9 14 16 13 9 9 6 3 10 10 3 10 16 18 21 21 25 30 31 32 33 34 34
22 22 22 22 22 22 22 21 19 18 17 17 17 17 18 18 17 15 15 15 13 13 11 11 11 10 10 9 8 8 10 5 4 9 14 13 8 6 6 9 15 19 24 21 17 16 17 17 17 14 10 10 10 11 11 12 12 11 10 7 13 17 13 13 13 15 11 20 20 12 3 5 4 7 9 3 7 16 18 21 23 25 28 30 30 32 32 32
22 23 23 23 23 23 22 21 19 18 17 17 16 16 16 16 16 15 14 14 13 11 10 10 9 10 11 6 5 9 4 1 5 8 11 12 7 4 3 9 17 22 23 19 16 16 16 16 17 15 11 11 11 12 11 9 8 10 13 12 12 15 15 16 15 17 11 17 22 12 4 5 4 5 5 0 5 16 18 19 22 25 27 28 29 30 32 32
24 23 24 24 24 24 23 22 19 18 17 16 16 16 15 15 15 14 13 13 11 9 9 8 9 11 8 3 6 6 0 2 6 6 7 7 6 2 4 8 15 22 20 17 16 16 16 15 15 15 13 13 12 12 11 9 9 11 12 12 14 11 17 20 15 17 15 11 17 15 10 9 9 6 3 1 5 14 19 20 22 24 26 27 27 28 30 31
24 24 24 24 24 24 23 22 20 18 17 16 16 15 14 14 14 13 12 11 9 9 8 7 10 9 2 3 10 6 5 7 6 5 6 3 4 4 7 8 13 19 17 16 16 16 17 15 13 12 11 11 11 12 12 13 13 14 13 10 13 12 13 16 13 16 14 7 12 13 12 12 11 7 7 8 8 10 15 21 24 24 25 26 26 28 28 29
24 24 24 23 23 23 23 22 19 17 17 16 15 15 14 14 12 12 10 8 8 7 6 7 8 4 2 7 11 7 8 7 5 4 4 2 4 5 7 9 12 16 16 15 14 14 16 15 14 14 11 9 9 9 8 11 14 15 15 12 11 12 13 15 14 14 11 6 11 12 9 9 9 9 15 16 15 15 15 19 22 22 24 25 26 27 26 27
25 24 24 23 23 23 23 21 17 15 16 15 16 16 14 12 10 9 8 7 7 5 4 6 6 2 4 7 6 6 9 4 4 2 2 3 4 6 7 9 11 15 15 14 12 12 14 15 15 16 16 13 10 8 7 8 12 13 13 11 10 11 11 14 16 15 12 10 13 11 4 6 8 11 17 17 18 20 16 17 21 21 22 24 25 26 26 27
24 24 23 23 23 23 23 20 15 14 14 15 16 14 11 10 8 7 6 7 5 2 2 5 5 3 6 7 2 6 9 2 3 1 1 3 4 6 8 9 11 13 14 14 12 10 12 15 16 17 17 16 15 14 11 8 9 9 10 9 8 8 8 12 16 16 14 14 18 12 5 6 10 12 18 17 16 19 17 17 20 21 22 23 24 25 25 26
24 24 23 23 23 23 23 19 15 13 13 14 13 11 10 8 6 5 6 6 3 0 2 4 5 5 8 8 4 4 10 4 2 1 3 5 6 7 8 10 11 12 13 14 12 10 10 13 15 16 15 15 15 14 9 8 8 8 8 8 8 8 9 12 14 17 14 13 17 12 4 6 11 14 18 19 17 17 16 16 19 20 21 22 24 24 24 26
23 23 23 23 22 23 23 19 14 12 12 13 11 9 10 6 4 6 5 4 2 1 1 2 6 8 8 3 3 3 7 5 3 4 6 6 7 8 6 10 11 11 13 13 12 10 9 11 14 15 14 12 10 10 7 7 7 8 8 8 9 10 8 10 11 18 17 13 15 13 6 3 9 15 18 19 19 18 14 14 18 18 19 22 23 23 24 26
23 23 22 22 22 22 22 19 14 12 12 11 8 8 10 4 2 7 4 2 3 1 2 1 4 9 9 4 3 5 6 7 7 7 6 6 8 7 5 8 11 11 12 11 11 11 11 11 11 11 12 10 8 8 7 7 7 7 9 8 10 12 9 9 8 15 17 13 13 13 8 4 5 13 19 19 19 19 17 16 17 18 19 21 23 23 24 26
23 22 21 21 21 21 22 19 14 12 12 10 7 8 9 5 5 8 3 2 5 3 4 4 4 7 8 5 5 3 6 7 6 4 3 5 7 7 6 9 9 11 12 11 12 13 12 12 10 8 8 9 8 9 8 9 10 8 9 8 9 12 11 11 8 11 14 12 12 11 9 8 7 11 17 19 19 19 19 18 17 19 20 20 22 23 23 26
22 21 20 20 20 20 21 19 13 12 12 8 8 8 8 8 7 6 3 4 6 4 3 4 6 6 3 2 4 5 7 6 5 4 3 4 6 7 8 9 9 12 12 8 11 14 12 9 9 8 8 10 11 12 12 12 13 12 10 10 10 11 11 13 11 10 14 11 12 12 11 10 8 12 16 18 19 18 18 20 17 17 17 18 21 23 23 25
22 20 19 19 19 20 20 18 12 11 11 9 12 11 9 10 6 2 6 8 13 9 7 3 4 8 6 3 5 9 8 6 5 4 2 3 6 8 10 10 10 12 11 8 9 14 12 8 9 10 11 13 15 16 16 15 16 17 14 11 12 12 10 14 14 12 15 11 11 14 12 6 4 8 15 18 18 16 16 19 16 13 14 14 16 20 23 25
22 20 19 19 19 20 19 16 11 9 9 10 14 13 10 11 6 5 12 12 11 8 8 5 5 8 6 5 7 9 7 5 3 1 1 3 6 7 9 11 10 9 10 12 10 12 12 9 10 13 14 15 15 16 17 17 17 17 15 12 11 11 10 14 16 12 17 12 9 13 11 5 5 9 12 18 16 15 17 18 16 15 16 17 15 15 20 24
22 19 18 19 18 19 18 13 9 8 7 7 9 9 9 10 8 8 11 12 10 7 7 6 6 6 3 4 4 4 6 7 4 4 1 3 8 8 8 10 9 7 10 12 10 9 10 10 13 15 15 16 16 15 16 17 17 14 12 11 9 9 10 11 17 15 13 10 9 16 13 9 11 9 8 14 15 16 20 20 19 18 20 23 21 14 15 22
21 19 19 20 18 18 16 9 6 7 9 8 6 7 9 9 8 9 9 11 12 10 9 8 7 5 2 2 1 3 8 8 2 6 2 3 8 8 7 8 9 9 10 11 11 9 8 9 14 16 14 15 17 16 16 14 13 12 10 9 9 10 11 8 12 17 13 9 10 14 13 10 11 9 8 15 17 17 21 22 22 24 25 26 26 19 16 19
22 20 19 20 19 17 12 7 5 6 7 7 4 5 9 10 8 10 9 10 10 8 8 5 5 3 2 3 3 5 7 7 3 3 3 5 7 6 7 9 9 9 10 12 14 13 11 10 13 16 16 16 16 16 16 12 9 12 14 12 10 11 14 11 9 14 13 12 11 11 10 8 11 13 12 14 17 17 19 19 21 25 30 26 24 24 20 23
22 20 20 20 20 17 9 5 6 7 7 6 4 6 10 10 8 8 8 8 7 6 8 4 4 4 2 3 4 5 7 6 6 2 1 6 8 6 6 8 8 8 10 14 15 13 13 13 12 14 16 17 17 14 15 12 8 10 14 15 15 14 14 15 15 12 10 10 11 9 9 6 12 18 15 11 13 14 14 15 19 21 26 24 21 24 22 24
21 20 20 20 20 17 8 5 5 8 9 6 5 9 10 10 9 7 5 6 4 6 8 6 5 4 2 3 4 6 7 3 3 1 2 5 7 7 7 6 7 8 11 11 10 8 10 14 14 13 14 17 17 14 14 14 10 8 10 13 17 18 16 16 17 12 8 8 10 12 9 7 9 15 17 16 15 17 16 14 17 20 23 27 27 26 23 22
22 21 20 19 19 17 11 6 6 8 11 7 7 10 10 10 9 5 4 5 3 6 8 6 4 3 3 1 3 7 5 1 2 5 3 2 4 5 6 7 6 8 9 8 7 6 9 14 15 14 14 14 13 12 13 15 11 8 9 11 15 18 18 17 16 11 9 9 10 13 11 7 7 10 17 21 19 19 18 15 15 18 23 29 32 30 28 26
22 21 19 18 16 14 12 7 4 7 11 10 10 11 9 10 8 3 5 4 2 5 6 5 2 1 2 2 6 8 6 6 5 5 4 3 5 5 7 8 9 10 10 8 7 7 9 13 14 16 14 10 10 11 13 15 12 9 12 14 10 11 14 16 15 11 10 10 8 11 12 9 7 8 12 19 20 18 20 20 19 21 25 30 32 33 32 29
22 21 19 17 13 10 10 7 5 8 11 11 12 11 10 10 7 4 6 3 3 5 4 4 4 3 5 7 6 5 5 6 4 2 2 7 7 7 8 8 10 13 12 11 10 9 9 10 11 15 13 9 11 12 12 14 13 10 13 15 11 8 8 10 11 10 11 10 9 12 13 9 7 8 10 13 17 17 19 20 21 25 29 31 33 33 30 26
21 20 18 16 11 7 9 9 6 7 10 12 12 12 11 9 5 5 5 2 3 5 4 4 4 4 5 8 7 6 4 5 4 4 5 8 8 9 10 10 9 10 10 11 12 12 14 14 11 11 12 12 12 12 15 16 13 10 11 13 12 9 6 6 7 8 9 9 10 15 14 11 9 8 9 10 13 16 18 17 19 25 29 31 32 32 29 28
20 18 16 15 9 5 8 8 6 8 11 13 13 12 10 6 4 6 3 2 2 3 4 3 2 2 4 6 4 6 3 4 1 6 7 6 8 10 9 9 8 7 8 9 10 12 15 16 12 9 12 16 13 11 14 14 11 10 10 10 9 7 5 5 7 7 9 9 11 15 16 15 11 7 7 9 13 16 18 19 20 23 28 33 34 32 32 32
18 16 14 11 7 5 7 8 9 11 11 12 12 10 8 5 5 6 2 2 2 1 2 3 3 1 1 5 5 2 1 2 2 3 6 5 5 6 6 4 2 4 6 6 7 9 11 13 13 12 13 16 13 9 10 11 10 11 11 9 9 7 6 6 7 7 9 9 10 13 15 14 11 9 13 11 11 14 17 23 26 27 32 36 35 33 33 32
17 15 11 7 4 3 5 8 10 11 10 10 11 9 6 4 4 5 3 2 2 3 2 2 2 2 3 5 4 2 1 3 1 2 5 5 6 6 5 3 5 6 6 6 7 6 7 11 15 15 11 13 14 9 8 10 11 12 11 9 9 8 7 7 7 7 9 10 12 15 14 12 10 10 15 17 13 12 17 26 35 37 37 37 36 35 33 33
15 11 6 4 5 7 8 7 9 10 10 8 8 7 6 5 3 3 2 4 6 3 1 2 4 5 6 6 3 5 3 4 1 2 4 4 7 7 5 0 5 7 7 7 8 7 8 8 12 14 10 11 15 13 10 10 11 11 10 10 10 8 7 7 6 7 8 8 12 15 12 10 9 7 12 17 15 13 13 21 34 39 39 40 39 36 34 34
12 8 6 6 9 10 10 8 9 9 8 7 7 6 5 4 2 4 5 6 5 4 4 2 5 7 6 5 1 4 2 2 2 1 5 6 6 3 2 6 8 7 6 5 5 7 11 10 7 14 16 15 16 14 13 14 10 9 10 10 10 9 8 7 8 9 9 8 9 11 9 8 7 7 11 15 15 15 15 15 28 33 36 39 37 35 34 32
9 5 6 7 7 8 7 7 8 6 7 7 6 5 2 2 5 6 6 7 6 7 8 6 6 6 5 5 5 7 4 3 4 2 4 7 7 2 6 8 7 8 7 5 5 6 7 10 13 11 13 17 18 16 15 15 11 6 10 11 10 10 10 8 10 12 10 9 7 7 8 8 8 9 11 14 15 17 16 13 21 30 35 36 33 32 32 31
7 3 6 6 5 7 5 6 6 5 7 7 5 5 3 4 8 8 7 9 6 4 8 7 1 3 6 1 5 8 6 3 4 2 4 5 4 3 4 7 6 8 9 8 5 6 7 9 15 18 12 13 20 19 17 18 16 10 8 10 10 12 12 8 7 9 9 9 6 8 11 10 9 7 9 14 16 17 17 14 17 29 35 34 32 33 34 32
6 3 4 3 4 7 5 4 4 5 8 7 6 7 4 4 9 10 9 8 6 4 6 6 1 2 7 5 2 2 1 0 1 2 4 3 2 8 7 4 6 8 9 10 6 6 9 10 12 16 15 12 15 17 14 17 22 18 11 8 9 10 10 8 7 7 9 8 6 9 12 10 9 8 9 14 16 14 16 17 16 21 31 32 32 33 34 32
6 6 4 1 5 6 4 2 4 7 7 5 4 4 2 4 10 12 11 8 6 5 6 6 4 0 3 4 9 6 1 3 5 3 3 3 2 8 10 6 6 9 10 10 7 7 8 8 9 14 17 14 9 10 10 13 18 18 16 12 9 8 8 9 8 7 8 7 7 9 9 8 7 8 11 15 16 14 15 17 14 17 29 32 32 32 33 33
7 9 1 5 7 4 2 4 6 8 7 4 3 2 4 5 8 9 10 8 6 5 4 7 7 3 2 5 8 5 1 4 7 4 3 5 2 5 11 11 8 10 12 10 8 8 7 8 8 12 16 14 8 7 10 12 12 12 14 12 10 8 7 9 9 8 8 7 6 7 8 7 5 6 11 14 16 17 15 13 12 19 30 32 32 34 36 37
10 8 3 7 5 1 4 8 7 7 4 2 3 3 8 7 5 7 7 5 5 3 5 6 5 6 6 4 5 6 4 6 5 2 5 7 4 5 9 12 11 10 11 8 7 5 4 7 8 10 11 9 9 9 11 14 13 11 11 11 12 10 8 10 9 10 10 8 7 7 7 7 5 7 9 8 11 14 13 10 10 17 29 32 33 36 38 39
11 4 6 7 3 2 7 7 4 3 1 4 2 7 8 5 6 7 5 0 2 3 2 6 3 5 5 2 5 7 5 6 7 3 6 7 6 9 7 9 11 10 10 7 7 7 7 6 8 9 10 12 16 16 13 15 17 14 12 11 13 12 10 9 8 9 10 9 9 8 8 5 3 4 9 9 9 13 16 14 12 17 25 29 33 39 40 39
9 4 8 7 5 5 7 2 1 2 4 3 1 8 6 3 5 8 4 2 1 2 2 5 3 5 5 5 6 7 5 6 7 6 8 8 4 10 11 12 11 9 9 6 5 8 9 6 8 8 10 13 19 20 17 17 17 14 11 9 12 14 14 11 9 10 9 10 11 7 8 6 5 5 5 9 8 11 15 16 17 18 20 22 26 34 42 43
12 6 5 6 5 5 4 2 2 2 4 3 1 6 5 4 7 10 8 8 3 3 4 6 5 4 4 3 4 7 7 5 5 6 8 8 5 9 14 14 12 8 7 5 6 9 7 5 6 7 8 9 11 12 11 12 11 8 7 10 14 16 15 11 9 11 10 9 11 8 8 8 1 5 2 4 9 9 10 13 18 19 19 22 24 26 39 48
11 6 2 4 3 2 5 8 6 3 5 3 3 4 3 4 6 6 9 10 7 7 7 5 4 4 5 5 4 5 6 5 5 7 5 6 9 11 12 10 9 8 7 5 7 9 7 6 7 7 8 7 8 5 6 7 7 8 8 10 15 16 15 9 8 11 8 4 5 4 6 9 4 5 2 2 5 2 2 5 12 17 21 18 12 15 28 45
8 4 3 6 7 7 10 9 8 5 3 2 3 2 2 4 6 6 8 8 6 6 7 5 5 4 3 5 7 6 6 6 7 6 5 6 7 7 10 12 10 10 9 9 9 8 6 7 9 10 10 10 9 9 11 11 9 11 12 13 15 16 15 12 8 9 8 6 7 4 5 7 1 2 3 4 3 2 2 1 2 7 13 13 15 7 10 33
6 5 5 5 7 6 8 8 8 6 3 2 2 3 4 4 4 6 4 4 5 5 5 3 5 5 4 6 7 6 7 8 7 7 7 7 7 9 12 14 13 11 7 10 11 7 5 8 12 14 15 16 17 16 16 15 14 15 16 16 16 16 16 14 11 12 12 10 9 6 6 4 7 10 4 3 5 2 3 2 9 11 6 12 17 12 11 23
5 6 7 5 6 6 7 8 8 6 5 5 3 3 4 4 4 4 3 1 4 5 3 2 2 4 6 6 5 6 7 8 6 5 6 6 6 8 9 9 12 12 8 9 11 8 6 8 11 15 17 18 19 18 17 16 15 15 16 18 18 16 17 17 16 17 16 10 7 6 8 5 7 11 10 9 8 10 12 6 10 15 17 17 16 13 12 15
8 6 8 7 5 5 6 4 4 6 7 6 4 3 5 4 4 5 3 3 4 4 4 5 4 5 7 6 5 6 7 7 6 3 2 4 5 7 8 6 8 12 11 9 9 8 7 8 11 14 15 17 19 17 17 17 15 15 19 21 18 15 18 19 18 20 19 13 12 11 10 5 6 9 6 9 12 13 15 12 13 15 17 19 20 19 17 13
9 6 7 6 5 7 5 2 2 2 4 2 2 3 3 4 5 5 5 5 6 4 3 6 6 7 9 7 6 7 7 8 9 6 3 6 6 5 5 6 6 7 8 7 7 6 4 7 11 12 12 14 16 16 16 16 15 17 20 20 18 17 19 19 17 17 17 14 15 15 11 5 4 8 6 9 16 17 15 15 16 16 18 19 17 15 16 14
8 6 6 7 3 5 7 2 3 4 2 3 3 3 3 3 5 6 5 5 7 6 4 6 7 7 9 8 7 9 8 9 10 10 9 9 9 6 5 7 9 6 3 5 7 5 4 6 10 9 9 10 12 14 15 16 17 19 19 18 18 17 16 15 14 12 13 13 13 12 9 5 3 6 7 9 13 14 13 14 14 15 17 17 15 14 14 13
7 6 9 9 1 2 5 2 3 5 3 6 6 5 4 4 5 6 5 4 5 5 4 6 8 6 7 9 9 9 10 11 12 13 13 13 14 14 13 14 15 11 6 6 6 6 6 6 6 7 8 9 12 14 14 13 14 13 14 17 18 17 16 15 14 14 15 14 10 8 8 5 4 6 7 8 8 9 9 11 13 14 13 12 12 14 15 15
Wind_Direction
2 359 358 356 352 348 345 344 346 346 345 346 346 345 344 343 343 339 339 340 342 345 346 347 346 347 352 1 359 352 335 306 289 265 248 210 207 225 223 218 220 211 202 184 165 180 190 191 198 201 203 208 223 228 232 229 214 196 203 269 254 269 269 338 297 291 291 170 174 180 171 143 131 139 137 135 139 146 158 155 152 157 142 143 144 144 146 147
0 359 356 354 352 348 344 341 342 343 344 345 345 345 342 341 341 338 339 337 338 341 343 343 343 342 343 348 352 353 340 309 281 283 277 248 240 238 228 223 215 205 196 176 173 190 192 194 197 199 202 208 220 220 228 222 208 211 215 268 266 304 332 346 312 303 297 229 184 181 152 140 145 145 147 146 148 155 157 145 147 149 139 141 144 146 149 149
358 358 355 352 350 348 345 341 339 340 341 343 344 344 341 340 338 337 338 336 335 336 340 339 338 337 333 334 337 343 342 312 291 288 274 271 265 245 228 223 215 205 196 180 182 200 198 197 197 199 205 216 223 215 223 212 202 212 197 256 262 170 329 335 310 302 294 273 213 174 145 169 176 151 154 156 151 155 149 148 158 151 143 144 148 150 151 152
356 355 354 351 349 347 345 341 339 338 339 340 343 342 340 339 337 337 335 334 332 332 337 335 334 335 330 328 325 338 339 305 295 235 251 299 291 252 233 223 216 207 198 182 188 209 207 206 201 203 211 224 230 221 226 210 195 196 190 244 226 141 118 266 266 288 284 274 228 192 130 171 196 156 154 164 152 152 155 161 168 154 147 148 151 153 154 155
353 353 351 350 348 346 343 341 340 338 337 338 339 340 340 338 336 335 332 331 331 331 333 330 333 332 327 324 322 336 336 311 96 146 292 313 304 265 250 235 215 205 195 178 192 218 214 214 207 206 218 232 236 224 225 220 212 206 207 228 198 157 161 220 230 234 252 262 213 189 197 204 209 154 160 177 148 153 166 162 168 156 150 151 153 155 157 157
352 351 349 348 347 345 343 340 338 337 337 336 336 337 336 336 335 332 330 330 330 330 328 328 332 328 324 320 320 333 315 330 63 295 296 309 297 285 262 241 210 196 186 180 202 224 213 215 214 209 219 233 243 236 225 219 221 241 223 190 155 180 220 225 225 201 198 235 250 193 194 201 186 130 164 192 132 148 158 154 162 154 152 154 154 158 160 160
351 349 347 347 344 344 342 338 337 336 335 334 334 334 332 333 331 330 329 329 330 329 327 330 330 327 323 317 322 321 260 271 15 312 299 302 288 287 273 227 196 186 180 188 214 222 211 213 217 215 221 229 241 245 243 228 220 238 237 144 150 196 223 225 236 233 182 192 228 226 190 175 102 128 151 150 133 148 149 152 160 154 155 157 156 161 163 163
350 348 346 345 343 343 341 338 336 334 333 333 332 330 329 328 327 328 327 328 330 327 331 332 329 325 318 321 322 291 253 248 15 328 315 317 294 284 282 207 182 179 180 193 215 216 211 213 218 220 224 232 241 245 247 247 229 230 247 208 173 183 211 227 229 249 206 169 196 223 182 121 127 156 135 103 156 152 148 152 158 156 157 159 160 163 164 165
349 348 346 344 343 343 341 338 334 332 333 332 332 329 328 325 322 324 324 326 327 328 336 331 326 320 312 324 311 281 249 100 4 333 326 326 302 281 259 191 175 178 183 198 215 217 214 215 220 222 230 243 249 253 249 249 241 230 239 241 213 173 181 215 218 239 231 155 167 177 145 125 150 170 125 16 176 150 156 159 158 159 158 161 163 164 165 167
348 348 346 344 343 342 340 338 334 332 331 332 333 330 328 323 319 319 320 323 323 328 336 330 326 317 311 331 292 280 351 328 322 326 324 320 289 233 160 182 179 181 191 205 216 222 220 218 223 225 240 257 261 268 264 250 255 256 245 239 242 205 184 204 207 226 230 166 160 153 139 149 162 176 140 202 160 150 169 170 163 162 160 164 166 166 167 168
347 346 345 344 342 340 339 337 335 332 331 335 334 333 330 323 317 315 316 318 319 330 333 332 326 314 327 305 276 288 3 318 302 306 311 320 270 211 159 184 192 189 198 209 217 224 224 224 231 234 237 249 261 268 270 262 260 266 268 259 248 240 223 218 205 217 222 167 157 146 133 149 160 157 147 167 166 172 182 167 162 163 162 166 167 167 169 171
344 345 344 342 341 340 338 336 335 332 332 336 336 336 330 322 317 312 314 315 319 330 330 334 328 318 360 287 263 290 342 322 299 276 279 297 248 217 183 196 202 199 203 213 222 224 227 230 234 242 238 241 251 256 288 282 260 252 257 267 257 248 245 234 221 214 209 174 161 147 135 154 164 152 151 163 169 185 187 160 160 165 163 166 168 168 171 173
341 342 342 341 341 341 340 338 335 333 333 337 339 335 330 326 319 312 312 316 326 327 332 343 326 296 317 290 246 310 331 321 302 277 219 268 237 216 212 208 206 207 213 224 232 226 229 235 238 245 251 259 259 262 317 297 258 250 244 251 259 256 242 226 223 209 196 192 171 161 174 168 168 156 153 165 168 172 176 161 163 166 165 168 168 169 172 175
337 340 341 341 341 342 342 340 335 333 336 339 340 337 336 332 321 322 321 322 338 336 345 346 329 305 288 276 225 352 358 5 268 239 191 267 232 216 216 213 214 213 222 235 241 237 232 235 242 251 255 259 266 277 295 275 251 254 248 242 242 253 250 224 210 202 199 187 174 185 233 166 164 166 162 170 166 163 172 170 167 167 166 169 170 170 174 177
334 337 339 340 341 342 344 342 335 335 340 342 345 346 344 341 340 345 328 328 357 53 358 352 353 335 271 252 215 350 15 43 223 225 271 276 233 222 216 216 221 218 226 235 240 248 243 234 236 245 252 252 262 274 280 270 251 239 240 240 230 234 256 243 205 194 199 175 171 192 228 162 166 173 167 165 165 171 179 171 168 171 168 169 172 171 175 179
332 334 337 340 341 342 345 343 335 338 345 346 354 360 352 355 23 4 345 358 31 192 322 349 349 325 284 277 200 269 357 6 312 291 272 269 236 232 223 214 220 222 226 228 234 247 248 240 234 237 247 249 248 251 256 261 245 225 229 233 233 225 234 255 214 188 192 173 170 190 212 185 164 168 169 166 171 179 181 169 168 171 171 173 174 173 176 178
332 333 336 339 341 342 344 343 338 341 350 353 4 9 359 351 354 3 11 26 7 306 257 272 322 293 263 286 258 250 338 339 325 308 264 248 238 243 228 209 216 218 216 221 228 236 237 232 232 233 239 243 238 235 237 245 237 215 221 232 243 239 229 244 220 180 184 173 168 191 214 223 166 163 169 171 173 176 177 175 171 173 179 179 176 176 178 177
331 332 335 338 340 342 344 344 339 346 357 1 4 356 353 350 316 332 343 308 327 310 271 227 250 274 249 270 288 283 335 332 327 314 251 235 237 242 230 212 215 207 205 219 220 221 226 218 220 227 226 230 232 230 223 227 235 222 213 222 236 244 241 239 225 173 176 166 160 194 217 211 189 160 164 171 174 177 179 180 178 179 184 182 178 179 179 179
330 331 334 337 340 341 344 343 339 354 6 12 16 351 336 337 306 304 347 286 264 281 302 211 225 288 294 319 334 312 311 315 308 283 232 241 235 232 230 217 211 203 201 211 205 206 215 210 216 227 220 219 219 223 229 231 243 251 239 227 228 235 240 241 232 178 175 172 162 193 220 209 187 161 162 173 179 182 184 184 182 179 182 186 185 182 180 182
330 331 333 337 341 340 343 342 338 1 14 26 27 7 342 337 303 277 356 278 245 271 304 259 261 300 307 324 334 317 295 263 280 285 228 236 225 224 225 213 206 205 211 217 197 197 211 217 215 222 223 223 221 223 237 245 251 265 266 251 238 233 236 241 238 191 179 191 178 193 216 206 204 193 174 175 181 185 187 183 180 182 187 189 190 188 183 184
332 331 334 339 341 340 343 341 342 8 22 27 18 4 359 1 344 342 341 298 254 260 271 274 291 284 299 326 321 323 305 248 253 338 301 232 218 219 203 202 210 203 214 226 214 196 208 230 224 223 229 230 232 228 235 249 254 261 269 272 260 244 241 239 245 214 179 193 189 182 192 176 239 242 180 170 179 186 190 187 181 185 193 193 194 200 191 184
333 333 335 339 341 342 342 341 357 24 24 9 359 354 2 4 343 325 325 301 278 256 240 257 266 251 286 319 301 309 300 276 227 170 272 244 222 222 183 196 224 214 209 220 225 206 205 232 233 228 232 232 240 238 233 241 251 257 260 269 270 264 258 234 247 245 191 184 186 172 168 174 209 222 179 182 188 186 193 192 185 181 182 191 196 209 212 193
334 335 337 338 342 343 343 354 16 29 30 13 352 359 354 344 332 321 307 291 282 251 225 234 238 237 278 297 275 267 284 292 227 130 89 249 233 238 208 211 233 227 219 213 218 224 216 225 230 234 236 231 235 241 241 237 240 251 252 254 252 255 269 243 233 247 223 194 197 188 179 174 190 204 207 209 199 191 199 192 183 183 181 187 192 199 231 218
336 337 339 339 342 342 347 13 13 353 8 0 350 9 349 333 330 325 304 283 275 232 205 217 227 234 291 289 258 264 285 296 287 87 75 255 258 264 239 237 242 235 230 222 223 233 239 230 221 228 234 236 235 232 239 242 233 238 241 249 253 247 263 271 253 250 232 199 197 213 214 178 171 190 203 211 204 197 201 185 167 178 183 185 191 193 227 245
337 338 340 340 339 341 342 355 358 340 321 307 332 357 343 335 327 325 309 275 256 197 174 178 203 206 260 253 221 263 292 272 263 332 5 271 291 300 270 251 248 247 239 232 231 236 244 242 227 222 225 232 239 232 229 236 242 239 232 237 253 260 261 269 275 270 246 209 187 202 236 214 177 183 184 197 206 193 192 182 159 164 175 182 198 195 212 241
337 337 340 339 336 338 334 308 320 329 316 305 341 339 335 334 314 310 310 269 231 164 162 174 186 177 203 202 201 274 287 210 189 307 258 267 289 296 293 261 232 248 255 247 243 242 242 242 239 234 227 224 231 237 230 231 240 245 237 230 240 259 267 270 277 275 263 241 196 191 223 243 203 189 179 181 198 192 184 182 166 162 166 178 194 190 196 221
336 336 338 339 335 336 337 308 279 313 330 343 348 333 330 327 312 300 275 256 213 160 159 154 149 126 115 136 254 276 302 36 233 239 216 285 293 275 276 266 242 246 258 259 250 240 232 236 241 239 236 230 227 230 226 230 239 241 250 243 228 238 250 260 271 273 275 272 229 207 211 230 234 211 186 181 193 194 178 171 173 172 169 179 189 189 197 212
334 334 335 337 335 337 342 326 276 309 336 348 338 329 329 322 315 289 260 264 154 154 147 123 111 147 190 269 272 267 305 317 264 193 163 270 277 250 252 263 273 271 261 258 252 245 231 227 234 239 238 237 234 233 225 228 241 240 250 261 247 238 244 249 255 262 276 279 257 227 212 214 233 223 197 183 188 192 179 173 177 177 175 182 192 195 201 207
331 331 332 333 334 345 348 337 316 310 324 333 324 322 326 314 300 260 259 270 147 154 131 125 147 174 228 252 233 232 287 278 252 126 180 254 242 233 263 275 291 293 280 269 264 261 253 232 228 235 238 236 234 240 234 227 236 239 247 264 270 261 256 256 252 252 264 266 259 246 228 226 233 214 202 188 185 190 185 178 172 174 178 183 193 196 197 199
329 328 329 327 330 344 324 312 323 317 312 319 320 320 313 294 272 242 232 222 148 142 136 145 138 155 232 259 208 183 268 259 265 301 262 254 227 216 260 273 275 288 281 271 268 267 273 274 260 239 238 244 235 237 240 233 235 238 238 252 260 250 242 260 261 251 254 248 245 250 245 246 247 218 207 202 194 188 180 177 170 170 178 183 190 191 189 194
328 326 325 321 322 313 280 285 325 321 304 310 318 317 298 264 245 255 230 129 125 146 165 149 89 186 232 290 236 166 232 236 256 294 261 245 221 208 236 242 229 252 260 256 258 258 265 272 272 247 236 247 242 232 242 240 232 234 234 236 245 240 218 241 254 243 245 242 234 242 247 251 252 240 232 213 197 185 170 171 171 168 178 185 188 189 187 191
328 325 321 318 314 289 271 288 313 309 301 310 315 306 288 241 222 250 225 164 195 147 137 109 76 21 2 317 275 154 304 241 118 301 283 278 249 226 239 231 206 260 255 248 245 239 243 248 254 250 232 237 243 228 231 236 222 223 231 229 230 228 212 219 227 226 238 241 235 236 241 247 248 249 257 248 215 195 174 169 171 171 177 183 186 189 187 187
329 327 324 328 333 333 313 297 304 311 312 310 302 287 275 249 229 253 247 171 87 51 39 66 49 352 342 302 290 65 334 269 95 307 303 304 288 279 264 278 335 301 277 296 288 253 234 224 231 245 233 219 232 233 221 222 215 215 219 218 221 223 218 220 219 226 239 238 232 233 235 244 244 237 249 257 248 216 189 175 173 175 178 180 185 188 187 187
332 337 347 7 10 7 357 319 303 315 312 298 286 267 251 252 261 305 338 66 62 53 85 27 333 297 265 267 2 47 292 270 47 318 302 277 263 270 258 290 5 314 282 291 296 282 270 239 211 223 227 212 218 227 236 234 221 216 217 220 224 226 226 228 219 220 236 240 227 222 226 237 238 223 231 245 250 245 220 178 169 176 179 178 181 185 186 187
336 356 4 4 3 358 353 321 294 302 297 278 267 257 246 259 318 7 13 35 33 6 29 18 296 282 254 231 146 70 352 313 80 277 287 268 248 266 37 61 40 354 308 286 303 301 283 280 249 216 214 220 220 213 227 246 239 208 207 222 225 223 233 246 253 251 248 247 229 216 220 230 239 236 225 228 232 239 239 186 163 170 173 171 176 181 185 187
333 342 322 322 340 339 329 294 283 285 273 261 256 260 263 7 16 21 5 356 5 3 344 307 263 258 243 202 170 124 102 285 272 255 278 267 249 254 64 62 34 8 355 330 316 319 292 288 301 275 226 226 229 212 205 230 250 213 201 220 225 226 236 242 257 269 268 256 236 222 225 218 227 237 223 220 218 217 229 206 164 161 163 166 173 179 183 185
339 331 296 290 327 334 312 280 277 255 249 257 266 281 308 28 20 17 3 341 341 354 316 294 246 270 282 218 155 145 137 229 262 277 279 254 241 298 67 94 61 28 11 350 314 313 321 301 302 304 286 251 241 229 205 213 239 248 215 207 210 228 241 245 252 257 256 256 242 230 234 218 211 222 210 216 218 208 213 214 175 159 161 168 174 178 183 186
355 348 287 280 346 340 315 271 258 242 244 256 268 277 296 27 32 19 3 343 326 317 297 290 32 350 305 319 292 249 118 206 52 42 284 258 44 11 21 74 54 36 13 350 327 310 321 306 292 293 291 281 254 238 214 207 225 245 250 226 211 220 224 227 246 246 242 253 248 236 241 231 216 210 199 209 219 210 202 210 203 166 160 168 172 176 182 184
338 310 279 22 358 341 330 271 247 253 255 263 280 293 321 46 52 26 358 355 341 314 305 317 355 161 232 317 324 316 337 289 310 342 321 306 33 36 29 8 360 14 7 351 329 314 314 296 289 289 289 293 272 238 222 208 213 235 254 252 241 240 228 216 225 241 247 250 250 242 237 237 233 212 200 202 208 215 208 206 204 160 153 166 171 172 179 181
308 287 262 48 351 337 328 278 261 260 258 258 279 341 35 47 64 43 9 359 336 319 333 342 353 325 283 2 340 308 291 319 318 326 326 310 291 68 45 22 3 356 355 344 313 301 294 280 282 286 290 294 275 238 235 225 208 217 239 245 243 248 248 234 220 222 239 248 254 254 239 233 236 216 212 203 194 209 218 207 189 160 159 169 173 173 180 184
298 280 38 29 347 328 285 278 265 256 258 287 283 44 45 18 18 52 53 4 321 6 357 321 326 312 308 336 305 299 337 331 319 298 279 291 310 44 35 26 18 351 342 331 300 300 290 281 284 280 282 280 264 256 250 245 231 216 222 234 237 237 236 236 225 213 224 239 245 262 261 238 228 226 223 204 183 196 211 209 191 173 170 172 175 177 182 186
291 282 33 19 20 348 296 289 270 252 35 30 4 55 43 332 332 21 64 40 306 67 344 285 286 310 316 351 320 331 356 312 302 299 281 297 15 48 23 14 19 349 329 307 293 346 360 298 279 275 272 277 286 292 290 280 272 255 242 237 235 234 227 227 234 222 217 226 231 255 270 258 302 270 209 189 191 192 194 202 205 197 189 183 181 181 182 185
317 56 57 29 13 320 289 297 341 313 35 6 353 57 33 315 348 353 10 81 171 146 294 305 22 7 357 26 346 335 344 319 315 315 298 292 27 50 6 354 12 347 328 317 300 354 1 285 263 276 277 282 289 293 295 294 288 270 261 268 255 240 231 229 243 243 228 219 217 230 251 251 355 1 179 179 200 185 178 194 207 212 207 202 199 188 180 181
334 360 44 29 356 305 284 348 15 63 52 337 343 75 55 25 7 334 358 36 2 345 357 346 17 22 354 356 329 322 327 325 300 302 314 303 319 7 351 352 11 346 326 4 2 357 347 275 269 272 267 269 266 267 273 276 278 270 269 292 284 263 251 252 262 257 244 229 223 216 230 239 6 47 85 208 212 182 160 187 203 210 206 208 223 209 182 178
313 305 352 6 343 57 39 357 349 71 79 22 28 81 121 78 43 355 8 20 0 354 354 343 356 348 325 323 308 300 303 304 295 299 322 314 313 334 330 331 353 323 310 1 351 328 308 286 293 269 247 246 239 248 279 274 286 296 288 298 300 286 277 288 287 260 247 258 264 233 227 238 198 124 124 255 233 202 100 180 196 206 196 185 218 229 189 179
307 325 4 339 339 49 61 22 4 32 59 50 28 21 57 82 88 69 14 2 21 359 309 318 347 315 310 328 310 298 299 306 307 299 303 304 305 322 320 315 309 296 318 343 322 304 291 274 275 268 262 266 273 301 312 305 306 300 293 300 305 304 309 323 312 274 266 267 256 237 248 262 286 108 183 186 194 293 313 352 7 237 197 124 73 49 156 167
311 5 25 354 338 24 63 48 33 35 25 21 358 347 15 23 51 74 49 353 20 356 302 348 5 321 337 349 322 315 313 304 294 289 303 319 317 319 324 320 299 279 301 314 290 272 270 266 261 260 263 268 278 290 296 296 292 286 291 293 289 300 316 318 301 292 299 281 238 225 253 269 40 32 18 135 137 60 350 37 37 10 4 68 70 74 108 147
3 38 42 10 329 360 36 34 32 41 32 20 12 342 2 23 17 33 80 34 354 360 350 29 33 317 329 343 328 312 307 299 288 294 320 335 322 307 302 297 288 278 271 272 270 259 253 262 262 262 263 266 272 276 279 278 274 276 286 280 273 289 304 298 288 289 293 277 225 236 258 229 88 57 33 33 51 33 6 16 68 45 29 35 43 61 97 129
20 44 38 10 1 36 45 31 17 44 42 14 15 20 356 19 27 356 3 345 332 17 6 325 338 337 319 325 323 302 300 300 292 305 331 300 287 286 281 279 284 284 277 267 268 274 272 266 262 264 269 270 270 273 280 280 276 279 280 270 266 286 294 290 292 292 287 264 228 238 257 232 105 90 63 10 14 17 5 21 55 41 27 26 27 43 70 94
13 30 15 357 45 43 16 27 356 38 88 28 350 52 355 353 19 351 341 336 324 357 354 314 328 330 312 317 313 289 288 295 297 304 286 267 270 269 279 292 283 281 295 299 287 279 278 284 281 275 271 270 271 274 276 274 269 269 270 265 264 275 278 279 283 285 287 269 235 239 251 228 97 75 69 21 10 9 15 36 39 16 10 13 14 36 56 60
24 45 355 325 45 9 326 9 357 316 91 74 3 33 7 359 19 342 319 329 324 330 338 318 321 321 309 311 304 292 297 300 299 301 291 283 287 276 260 280 280 270 273 283 279 267 252 278 291 287 273 268 271 270 266 263 259 259 260 261 263 265 263 269 277 278 287 280 251 248 258 225 115 56 57 45 19 10 19 27 15 359 3 9 11 26 37 37
26 35 350 325 16 18 317 13 21 333 42 60 28 25 4 353 9 344 324 334 317 313 331 323 316 312 303 303 303 304 309 307 302 300 297 292 289 283 276 273 274 274 266 254 258 262 257 260 273 278 273 272 271 270 270 267 259 255 253 251 253 257 258 263 271 275 282 284 272 259 255 223 119 75 66 61 38 19 14 7 6 10 12 14 21 23 19 18